DW0805 Ramloese DK current weather conditions

sailwx.info

Wind from 184

Air temperature 10.6° C
Dewpoint 9.8° C

Last reported at 2014-Oct-31 19:45 UTC.
Time now 2014-Nov-01 12:36 UTC

Location: N 56°01' E 012°05'.
View on Google Maps.

See reports from other nearby stations

  
Tides and Currents Weather Stations Pressure Air Temp Water Temp Dewpoint Dewpoint Depression Visibility Wind Speed Wind Dir Waves Ship Positions
date/time (UTC)wind fromknots sea level pressurealtimeterstation pressurevisibilityair tempwater tempwave heightnotes
2014-Oct-31 19:45 184 10.6
2014-Oct-31 19:35 184 0 gusting 4 10.6
2014-Oct-31 19:25 184 2 gusting 5 10.6
2014-Oct-31 19:15 184 0 gusting 1 10.6
2014-Oct-31 19:05 184 1 gusting 4 10.6
2014-Oct-31 18:55 184 0 gusting 4 10.6
2014-Oct-31 18:45 184 0 gusting 6 10.6
2014-Oct-31 18:35 181 2 gusting 6 10.6
2014-Oct-31 18:25 157 1 gusting 6 10.6
2014-Oct-31 18:15 161 2 gusting 7 10.6
2014-Oct-31 18:05 143 4 gusting 7 10.6
2014-Oct-31 17:55 141 3 gusting 8 10.6
2014-Oct-31 17:45 146 5 gusting 7 10.6
2014-Oct-31 17:25 173 1 gusting 1 10.6
2014-Oct-31 17:15 173 1 gusting 1 10.6
2014-Oct-31 17:05 173 1 gusting 1 10.6
2014-Oct-31 16:55 173 1 gusting 1 10.6
2014-Oct-31 16:45 173 1 gusting 1 10.6
2014-Oct-31 16:35 173 1 gusting 1 10.6
2014-Oct-31 16:25 173 1 gusting 1 10.6
2014-Oct-31 16:15 173 1 gusting 1 10.6
2014-Oct-31 16:05 173 1 gusting 1 10.6
2014-Oct-31 15:55 173 1 gusting 1 10.6
2014-Oct-31 15:45 173 1 gusting 6 10.6
2014-Oct-31 15:35 181 1 gusting 6 10.6
2014-Oct-31 15:25 161 2 gusting 6 10.6
2014-Oct-31 15:15 157 2 gusting 7 10.6
2014-Oct-31 15:05 147 4 gusting 8 10.6
2014-Oct-31 14:55 154 4 gusting 10 10.6
2014-Oct-31 14:45 138 5 gusting 12 10.6
2014-Oct-31 14:35 151 5 gusting 11 10.6
2014-Oct-31 14:25 130 6 gusting 11 10.6
2014-Oct-31 14:15 148 5 gusting 10 10.6
2014-Oct-31 14:05 144 6 gusting 11 10.6
2014-Oct-31 13:55 147 6 gusting 8 10.6
2014-Oct-31 13:45 172 2 gusting 5 10.6
2014-Oct-31 13:35 169 0 gusting 7 10.6
2014-Oct-31 13:25 152 2 gusting 6 10.6
2014-Oct-31 13:15 155 2 gusting 6 10.6
2014-Oct-31 13:05 164 3 gusting 6 10.6
2014-Oct-31 12:55 156 2 gusting 7 10.6
2014-Oct-31 12:45 158 3 gusting 6 10.6
2014-Oct-31 12:35 140 2 gusting 8 10.6
2014-Oct-31 12:25 156 2 gusting 8 10.6
2014-Oct-31 12:15 151 4 gusting 11 10.0
2014-Oct-31 12:05 152 2 gusting 7 10.0
2014-Oct-31 11:55 145 4 gusting 8 10.0
2014-Oct-31 11:45 155 1 gusting 7 10.6
2014-Oct-31 11:35 162 5 gusting 8 10.6
2014-Oct-31 11:25 164 1 gusting 8 10.6
2014-Oct-31 11:15 160 4 gusting 12 10.6
2014-Oct-31 11:05 162 4 gusting 11 10.6
2014-Oct-31 10:55 148 4 gusting 7 10.6
2014-Oct-31 10:45 143 6 gusting 8 10.6
2014-Oct-31 10:35 152 5 gusting 8 10.0
2014-Oct-31 10:25 136 6 gusting 10 10.0
2014-Oct-31 10:15 138 5 gusting 8 10.0
2014-Oct-31 10:05 137 4 gusting 8 10.0
2014-Oct-31 09:55 136 5 gusting 10 10.0
2014-Oct-31 09:45 138 6 gusting 10 10.0
2014-Oct-31 09:35 135 6 gusting 7 10.0
2014-Oct-31 09:25 132 4 gusting 8 10.0
2014-Oct-31 09:15 137 5 gusting 7 9.4
2014-Oct-31 09:05 133 4 gusting 10 9.4
2014-Oct-31 08:55 140 6 gusting 8 9.4
2014-Oct-31 08:45 135 6 gusting 10 9.4
2014-Oct-31 08:35 130 6 gusting 10 9.4
2014-Oct-31 08:25 133 6 gusting 11 9.4
2014-Oct-31 08:15 141 5 gusting 10 9.4
2014-Oct-31 08:05 136 5 gusting 8 8.9
2014-Oct-31 07:55 142 5 gusting 7 8.9
2014-Oct-31 07:45 141 4 gusting 7 8.9
2014-Oct-31 07:35 141 4 gusting 6 8.9
2014-Oct-31 07:25 141 5 gusting 6 8.9
2014-Oct-31 07:15 141 4 gusting 7 8.9
2014-Oct-31 07:05 140 5 gusting 8 8.9
2014-Oct-31 06:55 142 5 gusting 7 8.3
2014-Oct-31 06:45 130 4 gusting 10 8.3
2014-Oct-31 06:35 135 5 gusting 8 8.3
2014-Oct-31 06:25 134 5 gusting 11 8.3
2014-Oct-31 06:15 131 5 gusting 7 8.3
2014-Oct-31 06:05 132 4 gusting 7 7.8
2014-Oct-31 05:55 127 6 gusting 8 7.8
2014-Oct-31 05:45 122 7 gusting 10 7.8
2014-Oct-31 05:35 121 4 gusting 8 7.8
2014-Oct-31 05:25 124 5 gusting 8 7.8
2014-Oct-31 05:15 124 5 gusting 7 7.8
2014-Oct-31 05:05 123 5 gusting 8 7.8
2014-Oct-31 04:55 118 5 gusting 7 7.8
2014-Oct-31 04:45 113 3 gusting 7 7.8
2014-Oct-31 04:35 120 4 gusting 8 7.8
2014-Oct-31 04:25 122 4 gusting 6 7.8
2014-Oct-31 04:15 124 2 gusting 6 7.8
2014-Oct-31 04:05 128 2 gusting 5 7.8
2014-Oct-31 03:55 129 2 gusting 5 7.8
2014-Oct-31 03:45 129 4 gusting 6 7.8
2014-Oct-31 03:35 129 5 gusting 8 7.8
2014-Oct-31 03:25 132 6 gusting 10 7.8
2014-Oct-31 03:15 131 6 gusting 7 7.2
2014-Oct-31 03:05 123 5 gusting 7 7.2
2014-Oct-31 02:55 122 4 gusting 7 7.2
2014-Oct-31 02:45 119 2 gusting 6 7.2
2014-Oct-31 02:35 106 2 gusting 6 7.2
2014-Oct-31 02:25 305 0 gusting 2 7.2
2014-Oct-31 02:15 305 0 gusting 4 7.2
2014-Oct-31 02:05 305 0 gusting 4 7.2
2014-Oct-31 01:55 305 1 gusting 4 7.2
2014-Oct-31 01:45 305 0 gusting 2 6.7
2014-Oct-31 01:35 305 6.7
2014-Oct-31 01:25 305 0 gusting 4 6.1
2014-Oct-31 01:15 305 6.1
2014-Oct-31 01:05 305 1 gusting 2 6.1
2014-Oct-31 00:55 305 6.1
2014-Oct-31 00:45 305 6.1
2014-Oct-31 00:35 305 6.1
2014-Oct-31 00:25 305 6.1
2014-Oct-31 00:15 305 0 gusting 1 5.6
2014-Oct-31 00:06 305 5.6
2014-Oct-30 23:55 305 5.6
2014-Oct-30 23:45 305 0 gusting 1 5.6
2014-Oct-30 23:35 305 0 gusting 2 5.0
2014-Oct-30 23:25 305 0 gusting 1 5.0
2014-Oct-30 23:15 305 4.4
2014-Oct-30 23:05 305 4.4
2014-Oct-30 22:55 305 0 gusting 1 4.4
2014-Oct-30 22:45 305 5.0
2014-Oct-30 22:35 305 0 gusting 1 5.0
2014-Oct-30 22:25 305 5.0
2014-Oct-30 22:15 305 5.0
2014-Oct-30 22:05 305 0 gusting 1 5.0
2014-Oct-30 21:55 305 4.4
2014-Oct-30 21:45 305 4.4
2014-Oct-30 21:35 305 4.4
2014-Oct-30 21:25 305 4.4
2014-Oct-30 21:15 305 4.4
2014-Oct-30 21:05 305 4.4
2014-Oct-30 20:55 305 4.4
2014-Oct-30 20:45 305 0 gusting 1 4.4
2014-Oct-30 20:35 305 0 gusting 1 4.4
2014-Oct-30 20:25 305 4.4
2014-Oct-30 20:15 305 0 gusting 1 4.4
2014-Oct-30 20:05 305 0 gusting 1 3.9
2014-Oct-30 19:55 305 3.9
2014-Oct-30 19:45 305 4.4
2014-Oct-30 19:35 305 5.0
2014-Oct-30 19:25 305 5.0
2014-Oct-30 19:15 305 1 gusting 2 5.0
2014-Oct-30 19:05 305 1 gusting 2 5.0
2014-Oct-30 18:55 305 0 gusting 2 4.4
2014-Oct-30 18:45 305 3.9
2014-Oct-30 18:35 305 3.9
2014-Oct-30 18:25 305 3.9
2014-Oct-30 18:15 305 4.4
2014-Oct-30 18:05 305 5.0
2014-Oct-30 17:55 305 0 gusting 1 4.4
2014-Oct-30 17:45 305 4.4
2014-Oct-30 17:35 305 5.0
2014-Oct-30 17:25 305 5.0
2014-Oct-30 17:15 305 5.0
2014-Oct-30 17:05 305 5.6
2014-Oct-30 16:55 305 5.6
2014-Oct-30 16:45 305 6.1
2014-Oct-30 16:35 305 6.1
2014-Oct-30 16:25 305 6.1
2014-Oct-30 16:15 305 6.7
2014-Oct-30 16:05 305 7.2
2014-Oct-30 15:55 305 7.8
2014-Oct-30 15:45 305 8.3
2014-Oct-30 15:35 305 8.9
2014-Oct-30 15:25 320 9.4
2014-Oct-30 15:15 309 10.0
2014-Oct-30 15:05 309 0 gusting 4 10.6
2014-Oct-30 14:55 305 1 gusting 5 10.6
2014-Oct-30 14:45 305 2 gusting 5 11.1
2014-Oct-30 14:35 306 2 gusting 5 11.7
2014-Oct-30 14:25 306 2 gusting 5 11.1
2014-Oct-30 14:15 302 3 gusting 6 11.1
2014-Oct-30 14:05 288 2 gusting 5 11.1
2014-Oct-30 13:55 287 1 gusting 5 10.6
2014-Oct-30 13:45 287 1 gusting 5 10.6
2014-Oct-30 13:35 287 3 gusting 5 10.6
2014-Oct-30 13:25 300 1 gusting 5 10.6
2014-Oct-30 13:15 285 3 gusting 6 10.6
2014-Oct-30 13:05 300 1 gusting 5 10.6
2014-Oct-30 12:55 298 2 gusting 6 10.6
2014-Oct-30 12:45 308 2 gusting 6 10.6
2014-Oct-30 12:35 316 4 gusting 5 11.1
2014-Oct-30 12:25 302 4 gusting 6 11.1
2014-Oct-30 12:15 290 4 gusting 8 11.1
2014-Oct-30 12:05 325 2 gusting 7 11.1